ARG1488 SBFI-SAZM

Flight info

Callsign ARG1488
Flight time N/A
Altitude 38000
Route ALDOS UL324 MIGOT UM402 CRR UM792 ROPIS ROPIS2Q
Aircraft B742/H-SDFHIRWXY/L

Departure

Time 2026-04-21 03:50
Airport Cataratas International Airport (SBFI)

Arrival

Time N/A
Airport Ástor Piazzola International Airport (SAZM)
Time Latitude Longitude Altitude Speed Heading
2026-04-21 03:22 -25.59729 -54.48802 777 ft 0 kts 221°
2026-04-21 03:35 -25.59728 -54.48802 777 ft 0 kts 221°
2026-04-21 03:36 -25.59721 -54.48795 777 ft 1 kts 228°
2026-04-21 03:36 -25.59714 -54.48783 777 ft 1 kts 247°
2026-04-21 03:37 -25.59710 -54.48769 777 ft 1 kts 262°
2026-04-21 03:37 -25.59709 -54.48754 777 ft 1 kts 276°
2026-04-21 03:37 -25.59712 -54.48739 778 ft 1 kts 291°
2026-04-21 03:37 -25.59718 -54.48725 778 ft 2 kts 307°
2026-04-21 03:38 -25.59723 -54.48720 779 ft 1 kts 311°
2026-04-21 03:38 -25.59723 -54.48719 779 ft 0 kts 311°
2026-04-21 03:41 -25.59722 -54.48721 779 ft 1 kts 311°
2026-04-21 03:41 -25.59705 -54.48743 778 ft 5 kts 311°
2026-04-21 03:41 -25.59673 -54.48783 777 ft 7 kts 311°
2026-04-21 03:42 -25.59635 -54.48832 775 ft 9 kts 310°
2026-04-21 03:42 -25.59586 -54.48896 772 ft 12 kts 310°
2026-04-21 03:42 -25.59526 -54.48976 767 ft 14 kts 309°
2026-04-21 03:42 -25.59491 -54.49022 765 ft 0 kts 309°
2026-04-21 03:46 -25.59479 -54.49039 764 ft 5 kts 316°
2026-04-21 03:46 -25.59439 -54.49041 763 ft 6 kts 24°
2026-04-21 03:46 -25.59405 -54.49018 763 ft 5 kts 29°
2026-04-21 03:46 -25.59370 -54.49012 763 ft 5 kts 344°
2026-04-21 03:47 -25.59325 -54.49058 760 ft 12 kts 309°
2026-04-21 03:47 -25.59257 -54.49148 754 ft 17 kts 310°
2026-04-21 03:47 -25.59166 -54.49263 744 ft 22 kts 312°
2026-04-21 03:47 -25.59057 -54.49401 734 ft 18 kts 310°
2026-04-21 03:48 -25.58976 -54.49483 728 ft 16 kts 343°
2026-04-21 03:48 -25.58938 -54.49517 725 ft 5 kts 208°
2026-04-21 03:48 -25.58967 -54.49507 726 ft 0 kts 134°
2026-04-21 03:49 -25.58979 -54.49492 727 ft 15 kts 134°
2026-04-21 03:49 -25.59222 -54.49195 751 ft 87 kts 131°
2026-04-21 03:49 -25.59771 -54.48490 786 ft 152 kts 131°
2026-04-21 03:49 -25.60532 -54.47475 1137 ft 180 kts 128°
2026-04-21 03:50 -25.61337 -54.46372 1841 ft 188 kts 130°
2026-04-21 03:50 -25.62226 -54.45216 2360 ft 212 kts 131°
2026-04-21 03:50 -25.63239 -54.43964 2943 ft 220 kts 129°
2026-04-21 03:50 -25.64528 -54.43048 3478 ft 227 kts 164°
2026-04-21 03:51 -25.66115 -54.43172 3933 ft 240 kts 200°
2026-04-21 03:51 -25.67411 -54.44336 4381 ft 246 kts 237°
2026-04-21 03:51 -25.68238 -54.46010 4961 ft 244 kts 242°
2026-04-21 03:51 -25.69059 -54.47638 5526 ft 244 kts 243°
2026-04-21 03:52 -25.69868 -54.49272 6066 ft 244 kts 243°
2026-04-21 03:52 -25.70768 -54.50887 6600 ft 247 kts 235°
2026-04-21 03:52 -25.72073 -54.52167 7000 ft 258 kts 212°
2026-04-21 03:52 -25.73729 -54.53021 7357 ft 270 kts 205°
2026-04-21 03:53 -25.75546 -54.53721 7715 ft 281 kts 199°
2026-04-21 03:53 -25.77480 -54.54345 8087 ft 297 kts 198°
2026-04-21 03:53 -25.79524 -54.54998 8445 ft 313 kts 198°
2026-04-21 03:53 -25.81670 -54.55689 8807 ft 329 kts 198°
2026-04-21 03:54 -25.83918 -54.56414 9164 ft 345 kts 199°
2026-04-21 03:54 -25.86285 -54.57167 9536 ft 362 kts 198°
2026-04-21 03:54 -25.88799 -54.57942 9899 ft 378 kts 199°
2026-04-21 03:54 -25.91355 -54.58777 10257 ft 394 kts 199°
2026-04-21 03:55 -25.94057 -54.59596 10601 ft 410 kts 198°
2026-04-21 03:55 -25.96888 -54.60438 10963 ft 424 kts 199°
2026-04-21 03:55 -25.99745 -54.61324 11312 ft 438 kts 199°
2026-04-21 03:55 -26.02727 -54.62264 11717 ft 449 kts 199°
2026-04-21 03:56 -26.05768 -54.63222 12474 ft 452 kts 199°
2026-04-21 03:56 -26.08785 -54.64161 13099 ft 456 kts 200°
2026-04-21 03:56 -26.11831 -54.65176 13825 ft 458 kts 200°
2026-04-21 03:56 -26.14914 -54.66184 14568 ft 459 kts 200°
2026-04-21 03:57 -26.17960 -54.67157 15308 ft 460 kts 200°
2026-04-21 03:57 -26.21056 -54.68165 16039 ft 461 kts 201°
2026-04-21 03:57 -26.24128 -54.69223 16714 ft 463 kts 202°
2026-04-21 03:57 -26.27211 -54.70322 17426 ft 464 kts 203°
2026-04-21 03:58 -26.30249 -54.71429 18071 ft 466 kts 203°
2026-04-21 03:58 -26.33342 -54.72570 18724 ft 469 kts 203°
2026-04-21 03:58 -26.36475 -54.73730 19292 ft 473 kts 202°
2026-04-21 03:58 -26.39590 -54.74886 19874 ft 477 kts 202°
2026-04-21 03:59 -26.42753 -54.76057 20538 ft 478 kts 202°
2026-04-21 03:59 -26.45925 -54.77233 21083 ft 481 kts 202°
2026-04-21 03:59 -26.49065 -54.78398 21665 ft 482 kts 202°
2026-04-21 04:00 -26.55485 -54.80810 22624 ft 488 kts 203°
2026-04-21 04:00 -26.58689 -54.82066 23059 ft 491 kts 204°
2026-04-21 04:00 -26.61924 -54.83364 23464 ft 494 kts 204°
2026-04-21 04:00 -26.65164 -54.84682 23897 ft 496 kts 204°
2026-04-21 04:01 -26.68430 -54.86026 24311 ft 499 kts 204°
2026-04-21 04:01 -26.71681 -54.87374 24631 ft 503 kts 204°
2026-04-21 04:01 -26.74955 -54.88737 24982 ft 506 kts 204°
2026-04-21 04:01 -26.78285 -54.90128 25337 ft 508 kts 204°
2026-04-21 04:02 -26.81600 -54.91513 25774 ft 508 kts 205°
2026-04-21 04:02 -26.84899 -54.92893 26058 ft 511 kts 205°
2026-04-21 04:02 -26.88245 -54.94293 26486 ft 511 kts 205°
2026-04-21 04:02 -26.91555 -54.95676 27106 ft 507 kts 205°
2026-04-21 04:03 -26.94880 -54.97066 27742 ft 503 kts 205°
2026-04-21 04:03 -26.98136 -54.98432 28124 ft 503 kts 205°
2026-04-21 04:03 -27.01406 -54.99806 28618 ft 501 kts 205°
2026-04-21 04:03 -27.04668 -55.01174 29098 ft 500 kts 205°
2026-04-21 04:04 -27.07925 -55.02537 29551 ft 499 kts 205°
2026-04-21 04:04 -27.11210 -55.03905 29894 ft 501 kts 205°
2026-04-21 04:04 -27.14485 -55.05262 30308 ft 500 kts 205°
2026-04-21 04:04 -27.17721 -55.06601 30699 ft 500 kts 205°
2026-04-21 04:05 -27.21000 -55.07960 31022 ft 501 kts 205°
2026-04-21 04:05 -27.23155 -55.08851 31312 ft 500 kts 206°